Vorticity
8 10 10 11 11 11 11 12 13 17 14 11 21 12 12 23 16 13 2 4 16 -9 7 12 1 2 6 23 9 3 7 5 4 2 3 7 2 -4
8 3 4 7 11 12 11 10 10 12 14 11 18 18 20 10 19 21 17 -3 -9 2 27 9 9 5 6 -2 2 -23 7 15 2 4 4 8 3 0
2 4 2 1 -1 2 15 15 11 9 10 10 13 16 24 24 11 16 29 15 7 -2 0 -1 13 5 18 10 5 30 7 -13 3 3 2 3 9 6
4 5 4 3 2 5 9 14 16 12 11 8 7 14 15 22 25 15 15 24 30 1 -3 11 9 5 -1 22 22 13 14 6 13 2 1 -1 2 3
7 6 5 5 5 7 8 9 10 10 10 15 11 10 14 18 23 19 19 22 24 37 2 3 4 5 24 -7 -6 -7 5 11 1 9 5 5 1 -1
7 6 4 5 7 8 8 7 9 13 15 15 17 12 11 13 20 24 19 15 25 28 40 11 5 18 -18 7 11 20 5 13 15 3 9 3 2 2
6 6 6 7 8 9 9 11 15 14 13 13 16 13 12 12 12 21 22 15 19 19 38 35 16 16 11 -1 -2 8 18 -6 25 13 14 2 7 6
6 5 8 8 8 9 11 14 12 11 12 13 13 12 12 9 12 11 21 14 21 3 24 38 36 10 19 28 21 -3 3 -3 19 19 7 7 8 9
7 8 7 7 8 9 13 14 12 11 11 12 13 11 12 8 9 10 11 15 16 14 19 23 27 39 23 20 29 -5 10 -9 0 15 5 24 9 4
6 6 7 8 8 12 15 14 13 11 12 11 12 11 9 11 11 13 14 15 19 14 12 26 16 32 32 23 30 22 21 -19 17 9 16 9 4 6
7 8 9 8 10 13 15 15 13 11 9 11 13 11 10 10 12 14 14 7 8 9 3 13 15 23 25 26 24 39 11 8 -15 3 32 18 5 11
9 10 9 10 13 16 20 7 8 10 12 11 13 13 9 10 5 1 6 3 8 17 14 8 6 6 29 17 22 25 34 4 40 -16 -10 21 26 10
10 10 12 13 15 16 15 18 15 10 6 3 4 5 -2 3 4 5 7 6 10 9 9 10 13 10 13 20 25 17 26 13 23 38 5 13 17 10
11 13 13 15 15 14 10 9 11 11 9 7 10 11 14 16 16 16 15 13 12 14 17 15 12 9 9 13 22 15 28 24 36 12 44 30 8 -12
11 11 13 15 13 16 12 9 7 8 11 11 11 11 12 13 14 15 15 15 15 15 12 11 13 14 12 12 15 16 25 20 39 19 19 -29 -3 65
12 14 16 16 12 9 7 9 12 10 11 12 13 12 13 13 14 14 16 15 16 15 15 15 14 11 12 14 13 14 14 28 16 39 14 45 -32 10
12 11 17 9 6 8 13 11 10 10 9 11 13 13 13 14 14 15 15 15 15 15 15 15 15 15 13 11 12 12 13 18 18 29 18 31 39 -40
16 13 6 9 10 11 8 8 9 9 9 10 10 12 14 14 14 13 13 13 15 15 17 15 16 15 13 13 10 13 13 14 16 22 19 37 7 21
11 13 14 11 9 7 5 9 11 7 8 9 7 7 8 9 10 9 10 10 12 13 16 14 13 15 14 13 10 9 15 12 14 22 16 26 25 13
13 11 11 9 8 8 7 12 12 8 6 8 7 10 12 10 10 9 9 10 11 10 10 11 11 11 16 18 14 11 8 15 10 19 23 22 30 5
12 12 10 8 6 10 10 14 11 6 1 6 9 10 11 10 9 10 12 11 13 12 11 11 12 14 12 12 13 19 10 9 16 17 22 19 13 37
12 12 10 9 10 9 12 17 19 15 10 6 10 13 12 10 9 10 9 9 12 12 15 12 11 12 13 8 8 10 14 6 19 22 21 15 14 20
14 13 8 9 8 10 12 17 7 3 5 8 13 12 11 10 9 9 10 8 7 11 17 23 23 25 21 14 11 7 10 9 13 24 30 18 14 20
Height
3012 3011 3009 3008 3006 3003 3000 2997 2989 2979 2980 2991 3000 3006 3007 3009 3012 3016 3019 3025 3030 3035 3039 3044 3050 3051 3057 3062 3067 3068 3076 3082 3087 3090 3094 3098 3103 3106
3002 3001 2999 2997 2996 2994 2991 2989 2985 2978 2964 2971 2975 2985 2988 2988 2993 2996 3000 3004 3010 3015 3022 3026 3029 3035 3039 3046 3052 3057 3063 3067 3072 3077 3081 3085 3091 3095
2991 2989 2989 2986 2985 2983 2980 2977 2973 2970 2959 2957 2958 2959 2970 2971 2971 2975 2979 2984 2989 2994 3000 3005 3010 3016 3021 3028 3034 3041 3047 3052 3058 3063 3067 3072 3077 3083
2979 2978 2977 2974 2973 2971 2969 2966 2961 2959 2951 2943 2945 2945 2945 2955 2955 2952 2957 2961 2966 2973 2979 2985 2990 2996 3002 3008 3014 3021 3028 3035 3040 3046 3051 3057 3062 3069
2967 2966 2965 2961 2961 2959 2957 2953 2950 2946 2942 2935 2932 2932 2930 2933 2939 2938 2936 2938 2943 2949 2955 2962 2968 2975 2982 2987 2992 3001 3009 3015 3023 3029 3035 3041 3047 3053
2955 2954 2953 2951 2949 2948 2945 2941 2937 2933 2931 2926 2923 2920 2918 2917 2919 2924 2921 2920 2921 2928 2932 2937 2945 2951 2958 2965 2973 2980 2987 2996 3003 3012 3018 3025 3032 3038
2944 2943 2942 2940 2938 2934 2930 2928 2925 2921 2918 2915 2911 2909 2907 2906 2903 2907 2905 2905 2904 2908 2911 2913 2919 2928 2936 2942 2948 2959 2965 2974 2983 2990 2997 3005 3015 3021
2931 2930 2929 2928 2925 2923 2920 2917 2915 2910 2907 2904 2900 2897 2897 2894 2893 2890 2891 2890 2888 2898 2890 2893 2898 2901 2910 2920 2926 2936 2944 2952 2958 2971 2979 2985 2996 3004
2919 2918 2917 2915 2912 2909 2908 2905 2903 2901 2897 2894 2888 2887 2883 2884 2880 2877 2876 2879 2876 2878 2874 2870 2880 2879 2888 2893 2901 2909 2921 2931 2938 2950 2958 2965 2972 2983
2907 2906 2903 2902 2901 2897 2893 2891 2890 2889 2887 2883 2879 2876 2874 2873 2870 2868 2866 2862 2862 2863 2863 2852 2862 2860 2866 2873 2883 2890 2898 2906 2916 2928 2936 2944 2952 2961
2895 2893 2891 2888 2888 2885 2881 2878 2876 2874 2874 2872 2868 2865 2863 2861 2860 2859 2855 2852 2846 2847 2848 2843 2845 2843 2849 2854 2862 2869 2876 2881 2893 2903 2914 2922 2932 2940
2882 2881 2879 2876 2874 2873 2870 2867 2863 2863 2861 2858 2856 2854 2852 2849 2849 2847 2845 2840 2839 2834 2839 2834 2833 2831 2826 2834 2840 2848 2854 2860 2871 2878 2890 2898 2910 2920
2868 2867 2867 2865 2862 2860 2858 2856 2853 2852 2849 2847 2843 2839 2837 2836 2833 2832 2831 2829 2825 2820 2824 2823 2818 2816 2815 2814 2821 2829 2835 2842 2849 2857 2870 2879 2888 2896
2855 2855 2853 2852 2850 2848 2848 2846 2844 2842 2837 2833 2829 2826 2824 2822 2819 2816 2814 2811 2809 2806 2812 2810 2805 2804 2802 2800 2801 2809 2815 2822 2828 2840 2851 2858 2867 2876
2845 2843 2841 2840 2839 2837 2835 2834 2831 2828 2824 2820 2816 2813 2810 2807 2804 2801 2799 2797 2793 2792 2794 2794 2792 2791 2788 2785 2786 2789 2794 2803 2809 2823 2830 2833 2846 2854
2835 2833 2831 2830 2829 2826 2824 2823 2821 2818 2813 2808 2803 2799 2796 2793 2789 2787 2783 2781 2777 2777 2779 2779 2777 2776 2773 2772 2774 2774 2777 2780 2792 2803 2807 2813 2824 2830
2825 2822 2820 2818 2816 2815 2814 2811 2809 2806 2802 2797 2791 2787 2783 2779 2776 2774 2769 2766 2762 2761 2761 2764 2763 2761 2759 2758 2756 2760 2763 2765 2775 2785 2791 2796 2804 2812
2814 2812 2810 2808 2807 2805 2802 2800 2798 2794 2791 2786 2781 2776 2771 2767 2762 2759 2756 2752 2748 2747 2745 2747 2747 2745 2743 2741 2744 2745 2750 2751 2759 2768 2772 2774 2783 2799
2804 2803 2801 2799 2797 2795 2792 2789 2785 2783 2779 2775 2769 2765 2760 2754 2750 2745 2742 2738 2733 2731 2730 2731 2730 2729 2725 2720 2731 2733 2732 2735 2736 2740 2748 2755 2766 2779
2795 2793 2792 2790 2788 2785 2782 2778 2775 2771 2768 2762 2757 2752 2747 2741 2735 2731 2728 2724 2720 2716 2712 2713 2713 2713 2710 2707 2708 2713 2714 2716 2718 2723 2734 2740 2748 2760
2788 2786 2783 2781 2779 2776 2772 2768 2763 2759 2755 2749 2743 2738 2732 2727 2720 2716 2711 2709 2705 2700 2694 2693 2696 2699 2694 2693 2686 2689 2698 2702 2706 2709 2718 2721 2729 2740
2779 2777 2776 2773 2770 2766 2762 2757 2752 2747 2742 2736 2729 2723 2717 2711 2703 2698 2693 2688 2686 2682 2677 2677 2679 2678 2676 2673 2667 2671 2677 2683 2686 2691 2698 2707 2713 2722
2772 2769 2768 2765 2762 2757 2752 2746 2741 2734 2728 2721 2713 2707 2700 2692 2687 2679 2673 2668 2662 2658 2655 2652 2654 2655 2653 2652 2651 2652 2657 2663 2668 2670 2676 2688 2697 2707